Location: B�singen
(46.8923°N, 7.2277°E)
Time: 01:28:19
(UTC+00:00)

Daily predictions for brighter satellites

Satellite Brightness Start Highest point End
(mag) Time Altitude Azimuth Time Altitude Azimuth Time Altitude Azimuth
Cosmos 2344 4.2 02:53:31 48° E 02:53:31 48° E 02:59:46 10° NE
USA 215 3.8 03:19:46 10° E 03:25:43 51° NNE 03:25:43 51° NNE
Cosmos 2369 Rocket 4.3 03:33:24 10° SSE 03:37:44 24° ESE 03:42:05 10° NE
NOSS 3-3 (A) 4.4 03:44:28 75° NNW 03:45:17 87° NE 03:53:47 10° SE
NOSS 3-3 (C) 4.4 03:44:32 74° NNW 03:45:23 87° NE 03:53:52 10° SE
Cosmos 1867 4.4 03:50:15 45° SE 03:50:15 45° SE 03:53:57 10° SE
Tsikada Rocket 4.4 03:46:22 10° S 03:52:26 60° E 03:58:36 10° NNE
Gblst 52 Del rocket 4.4 03:54:35 79° E 03:54:35 79° E 04:00:54 10° ENE
Cosmos 1943 Rocket 2.1 04:06:38 84° SE 04:06:42 85° ESE 04:12:23 10° NNE
CZ-2C R/B 3.5 04:03:39 10° SE 04:08:54 49° ENE 04:13:24 14° N
Cosmos 1241 Rocket 4.2 04:10:32 78° WNW 04:10:56 83° WSW 04:17:07 10° SSE
SL-19 R/B 4.4 04:05:34 10° SSE 04:11:09 73° ENE 04:13:20 38° N
SL-8 R/B 3.9 04:16:23 67° ENE 04:16:23 67° ENE 04:20:40 10° E
CENTAUR R/B 2.4 04:16:08 65° WSW 04:17:05 80° NW 04:24:16 10° NE
Cosmos 2297 3.6 04:21:07 71° WSW 04:21:37 77° WNW 04:27:23 10° NNE
NOSS 3-2 (A) 3.4 04:27:49 57° WNW 04:28:09 58° NW 04:34:40 10° NE
Cosmos 2278 Rocket 4.0 04:33:50 16° N 04:33:50 16° N 04:35:39 10° N
NOSS 3-2 (C) 3.2 04:33:35 43° SW 04:35:37 81° NW 04:42:09 10° NE
SKYMED 2 3.6 04:31:20 10° SSE 04:35:40 76° ENE 04:37:12 39° N
Envisat 3.2 04:30:35 10° NNE 04:35:40 71° ESE 04:40:44 10° S
Cosmos 2098 Rocket 3.3 04:37:55 10° S 04:41:42 65° E 04:46:32 10° NNE
Meteor 2-3 Rocket 3.7 04:36:47 10° SSW 04:42:22 61° WNW 04:48:04 10° N
Landsat 5 3.8 04:40:48 10° SSE 04:45:18 75° ENE 04:48:26 20° N
Cosmos 968 Rocket 3.3 04:42:38 24° SSW 04:45:43 71° WNW 04:50:53 10° NNE
Meteor 2-13 Rocket 4.3 04:40:41 10° S 04:46:48 83° W 04:52:56 10° N
CZ-4B R/B 4.3 04:43:43 10° NNE 04:48:11 75° ESE 04:52:39 10° S
Genesis I 3.8 04:49:24 44° SSW 04:49:24 44° SSW 04:52:45 10° SSE
Cosmos 921 Rocket 3.0 04:50:35 57° WNW 04:51:08 63° WSW 04:55:32 10° S
Okean 3 Rocket 4.1 04:48:52 10° S 04:53:20 64° E 04:57:51 10° NNE
DNEPR-1 R/B 3.9 04:53:15 34° NNW 04:55:24 80° NE 05:01:02 10° SE
Cosmos 1833 4.5 04:51:16 18° NNW 04:55:33 69° ENE 05:01:16 10° SE
H-2A R/B 3.8 04:52:18 10° SE 04:56:04 31° ENE 04:59:55 10° N
Meteor 1-26 Rocket 4.5 04:53:51 24° NNW 04:57:07 48° W 05:02:38 10° SSW
Cosmos 1812 2.5 04:56:57 57° NW 04:57:32 68° W 05:01:20 10° S
CBERS 1 LM4 rocket 4.3 04:54:02 10° NNE 04:58:54 89° W 05:03:54 10° SSW
ADEOS 4.1 04:54:01 10° NNE 04:59:12 60° ESE 05:04:21 10° S
USA 238 DEB 3.7 05:00:10 26° WSW 05:03:51 56° NW 05:10:39 10° NE
USA 238 3.7 05:00:14 26° WSW 05:03:57 56° NW 05:10:46 10° NE
Cosmos 2142 Rocket 4.4 04:57:53 10° N 05:04:14 80° W 05:10:37 10° S
Cosmos 1151 Rocket 2.9 05:01:35 22° NNW 05:04:24 68° W 05:08:44 10° S
Cosmos 1766 Rocket 3.4 05:02:11 10° S 05:06:31 85° W 05:10:53 10° N
Cosmos 2344 3.9 05:03:34 28° W 05:07:00 43° NNW 05:14:45 10° NE
CZ-2C R/B 4.0 05:02:28 10° NNE 05:07:10 47° E 05:12:00 10° S
Cosmos 2263 4.2 05:01:45 10° SSW 05:07:27 84° ESE 05:13:14 10° NNE
USA 215 3.2 05:02:22 10° SE 05:08:53 72° SW 05:13:03 24° WNW
Kosmos-917 4.4 05:12:30 35° NW 05:12:52 36° NNW 05:17:43 10° NE
Meteor 1-31 Rocket 2.7 05:10:15 10° N 05:14:05 58° WNW 05:17:55 10° SSW
Cosmos 1782 4.4 05:15:55 19° SW 05:15:55 19° SW 05:17:25 10° SSW
Cosmos 2279 Rocket 3.9 05:08:49 10° NNW 05:14:59 71° W 05:21:08 10° S
Cosmos 2297 Rocket 4.4 05:11:40 10° N 05:15:31 18° NE 05:19:21 10° E
Cosmos 1328 Rocket 3.4 05:12:41 10° NNW 05:17:04 71° W 05:21:24 10° S
IRAS Rocket 4.2 05:11:55 10° SSE 05:17:26 85° ENE 05:22:57 10° NNW
BREEZE-M DEB (TANK) 4.3 05:04:39 10° SW 05:17:41 51° SSE 05:21:25 10° E
SJ-12 4.3 05:15:35 10° N 05:19:27 39° WNW 05:23:18 10° SW
Cosmos 2369 Rocket 2.2 05:15:49 10° SW 05:21:19 59° WNW 05:26:52 10° NNE
FALCON 9 DEB 3.5 05:21:07 37° NW 05:21:49 43° NNW 05:25:05 10° NE
Cosmos 1862 3.3 05:18:58 10° SSW 05:22:51 56° WNW 05:26:45 10° N
COSMO-SKYMED 1 3.2 05:19:52 10° SSW 05:23:50 34° W 05:25:48 23° NW
Nadezhda 4 Rocket 4.4 05:19:52 10° S 05:25:57 67° E 05:32:08 10° NNE
H-2A R/B 3.4 05:24:10 10° N 05:27:24 29° WNW 05:30:40 10° SW
H-2A R/B 4.4 05:30:01 10° NE 05:34:02 25° E 05:38:04 10° SSE
Meteor 2-15 Rocket 4.5 05:28:37 10° N 05:34:44 87° E 05:40:49 10° S
CZ-4B R/B 2.6 05:33:17 10° NNE 05:36:54 83° ESE 05:40:28 10° SSW
CZ-4B R/B 2.8 05:36:38 10° SE 05:39:45 38° ENE 05:42:51 10° N
Cosmos 1408 Rocket 3.4 05:37:37 10° SSW 05:41:55 76° W 05:46:14 10° N
Cosmos 783 Rocket 4.4 05:38:09 10° NNW 05:43:21 74° WSW 05:48:32 10° SSE
CZ-4C R/B 3.8 05:42:08 10° SSW 05:44:49 25° W 05:46:01 20° WNW
Cosmos 1656 Rocket 3.7 05:39:45 10° SW 05:45:01 52° WNW 05:50:21 10° NNE
DMSP B5D2-2 4.1 05:40:00 10° S 05:45:10 63° WSW 05:50:21 10° NNW
Cosmos 1503 Rocket 4.0 05:40:08 10° SSW 05:45:22 63° WNW 05:50:41 10° NNE
USA 32 4.5 05:41:34 10° N 05:46:49 66° E 05:52:01 10° SSE
Cosmos 1743 Rocket 3.9 05:44:53 10° S 05:49:15 70° E 05:53:37 10° NNE
CZ-2C R/B 3.6 05:44:50 10° SSW 05:49:24 26° W 05:53:55 10° NW
Cosmos 2227 Rocket 4.2 05:46:40 10° N 05:51:03 22° NE 05:55:24 10° E
Cosmos 1943 Rocket 3.4 05:48:15 15° W 05:51:11 21° NW 05:55:25 10° N
FAST Rocket 4.2 05:48:53 10° S 05:51:28 71° E 05:54:28 10° NNE
Cosmos 1777 Rocket 4.2 05:51:51 10° SSW 05:57:03 81° ESE 06:02:19 10° NNE
Cosmos 1515 Rocket 3.8 05:53:08 10° NNW 05:57:21 48° W 06:01:31 10° SSW
SL-8 R/B 4.0 05:54:22 14° WNW 05:58:23 56° SSW 06:03:03 10° SE
FALCON 9 DEB 4.2 05:56:51 15° NW 05:58:27 24° N 06:00:54 10° NE
Meteor 1-27 Rocket 3.7 05:54:50 10° NNW 06:00:25 67° W 06:06:06 10° S
Cosmos 1602 4.4 05:57:57 10° S 06:01:41 57° E 06:05:27 10° NNE
NOAA 6 4.2 05:57:18 10° NNE 06:02:27 78° ESE 06:07:34 10° S
COSMOS 2487 3.0 06:01:17 10° NNW 06:04:36 55° ENE 06:07:53 10° SSE
Cosmos 773 Rocket 4.2 05:59:52 10° NNW 06:04:59 54° WSW 06:10:00 10° S
FALCON 9 DEB 4.2 06:03:16 13° NW 06:05:09 23° N 06:07:31 10° NE
SJ 16-02 1.3 06:02:13 10° SSW 06:06:36 89° W 06:11:01 10° NNE
FALCON 9 DEB 4.2 06:05:15 12° NW 06:07:15 23° N 06:09:36 10° ENE
CENTAUR R/B 3.6 06:03:23 10° W 06:08:58 29° NNW 06:15:26 10° NE
Alouette 2 Rocket 3.1 06:06:58 10° NNW 06:10:53 70° W 06:14:24 10° S
NOAA 12 4.2 06:08:22 10° N 06:13:33 57° WNW 06:18:40 10° SSW
Envisat 4.3 06:10:44 10° NNW 06:14:09 18° WNW 06:17:33 10° WSW
Cosmos 1340 Rocket 2.8 06:10:51 10° SSW 06:14:45 63° WNW 06:18:44 10° N
SL-27 R/B 3.2 06:14:51 10° NW 06:18:09 35° WSW 06:21:24 10° S
Cosmos 1500 Rocket 3.7 06:13:48 10° SSW 06:18:10 56° WNW 06:22:36 10° N
Cosmos 1939 Rocket 3.1 06:16:20 10° N 06:20:08 45° WNW 06:23:51 10° SW
FALCON 9 DEB 4.2 06:21:49 10° WNW 06:24:13 23° N 06:26:38 10° NE
